Weather Service Report


217 
ASUS42 KCAE 291210
RWRCAE
REGIONAL WEATHER ROUNDUP
NATIONAL WEATHER SERVICE COLUMBIA SC
800 AM EDT THU JUN 29 2017

NOTE: "FAIR" INDICATES FEW OR NO CLOUDS BELOW 12,000 FEET WITH NO
SIGNIFICANT WEATHER AND/OR OBSTRUCTIONS TO VISIBILITY.

NOT ALL STATIONS ARE QUALITY CONTROLLED BY THE NATIONAL 
WEATHER SERVICE. USE DATA WITH CAUTION...ESPECIALLY 
DEWPOINT OBSERVATIONS.

SCZ001>056-GAZ040-063>065-077-291300-
...UPSTATE SOUTH CAROLINA...
  
CITY           SKY/WX    TMP DP  RH WIND       PRES   REMARKS
ANDERSON       MOSUNNY   73  65  75 CALM      30.21S                  
6HR MIN TEMP:  66; 6HR MAX TEMP:  73;                                

LIBERTY        PTSUNNY   66  65  96 CALM      30.21F                  
6HR MIN TEMP:  62; 6HR MAX TEMP:  68;                                

SPARTANBURG    SUNNY     70  63  78 CALM      30.22S                  
CLEMSON        MOSUNNY   72  68  87 CALM      30.22S                  
6HR MIN TEMP:  67; 6HR MAX TEMP:  73;                                

GREENVILLE     SUNNY     73  64  73 W3        30.23S                  
6HR MIN TEMP:  71; 6HR MAX TEMP:  74; 6HR PCP: TRACE;                

GREENWOOD      MOSUNNY   69  63  81 N5        30.22R                  
6HR MIN TEMP:  63; 6HR MAX TEMP:  72;                                

GREER          SUNNY     72  64  76 CALM      30.21S                  
6HR MIN TEMP:  66; 6HR MAX TEMP:  72;                                

ROCK HILL      PTSUNNY   69  61  75 CALM      30.24R                  
6HR MIN TEMP:  60; 6HR MAX TEMP:  69;                                

CHESTER        SUNNY     64  59  82 N3        30.23R                  
LAURENS        SUNNY     68  63  83 CALM      30.22R                  


...CENTRAL SOUTH CAROLINA...
  
CITY           SKY/WX    TMP DP  RH WIND       PRES   REMARKS
COLUMBIA APT   MOSUNNY   72  63  73 E3        30.19S                  
6HR MIN TEMP:  64; 6HR MAX TEMP:  74;                                

COLUMBIA OWENS SUNNY     73  64  73 CALM      30.21R                  
6HR MIN TEMP:  65; 6HR MAX TEMP:  73;                                

MCENTIRE ANGB  MOSUNNY   70  65  82 E5        30.20R                  
6HR MIN TEMP:  60; 6HR MAX TEMP:  70;                                

ORANGEBURG     SUNNY     72  66  81 E3        30.20R                  
6HR MIN TEMP:  64; 6HR MAX TEMP:  72;                                

SUMTER SHAW    SUNNY     71  62  73 CALM      30.18R                  
6HR MIN TEMP:  61; 6HR MAX TEMP:  71;                                

NEWBERRY       CLOUDY    70  64  83 CALM      30.24R                  
BARNWELL       FAIR      75  68  78 E5        30.19S                  
MANNING        FAIR      68  64  88 SE9G25    30.20S                  
CAMDEN         FAIR      68  61  77 CALM      30.22R                  
WINNSBORO      SUNNY     68  63  83 CALM      30.21S                  


...EASTERN AND COASTAL SOUTH CAROLINA...
  
CITY           SKY/WX    TMP DP  RH WIND       PRES   REMARKS
MYRTLE BEACH   SUNNY     73  66  78 CALM      30.22R                  
N MYRTLE BCH   SUNNY     73  63  70 NE3       30.21R                  
6HR MIN TEMP:  63; 6HR MAX TEMP:  77;                                

CONWAY         FAIR      68  61  77 CALM      30.21S                  
MARION         FAIR      68  63  83 CALM      30.21S                  
HARTSVILLE     FAIR      70  61  73 CALM      30.20S                  
FLORENCE       SUNNY     69  63  81 CALM      30.21S                  
6HR MIN TEMP:  61; 6HR MAX TEMP:  69;                                

DARLINGTON     SUNNY     70  64  81 CALM      30.22R                  
6HR MIN TEMP:  63; 6HR MAX TEMP:  70;                                

CHARLESTON APT MOSUNNY   76  67  73 NE8       30.18S                  
6HR MIN TEMP:  68; 6HR MAX TEMP:  76;                                

MOUNT PLEASANT FAIR      75  70  83 CALM      30.19S                  
WALTERBORO     MOSUNNY   73  66  78 E7        30.19S                  
BEAUFORT       MOSUNNY   77  73  87 NE6       30.17R                  
6HR MIN TEMP:  74; 6HR MAX TEMP:  80;                                



...EASTERN GEORGIA...
  
CITY           SKY/WX    TMP DP  RH WIND       PRES   REMARKS
AUGUSTA BUSH F CLOUDY    74  67  78 CALM      30.18R                  
6HR MIN TEMP:  67; 6HR MAX TEMP:  74;                                

AUGUSTA DANIEL CLOUDY    74  62  66 SE3       30.20R                  
6HR MIN TEMP:  73; 6HR MAX TEMP:  75;                                

THOMSON        PTSUNNY   73  66  79 CALM      30.24S                  
6HR MIN TEMP:  66; 6HR MAX TEMP:  73;                                

WASHINGTON     FAIR      75  72  88 CALM      30.20R                  
CLAXTON        FAIR      72  70  93 CALM      30.16S                  
6HR MIN TEMP:  69; 6HR MAX TEMP:  72;                                

SYLVANIA       CLOUDY    75  70  85 E6        30.19R                  
6HR MIN TEMP:  69; 6HR MAX TEMP:  75;                                

STATESBORO     CLOUDY    75  75  99 CALM      30.18R                  
6HR MIN TEMP:  71; 6HR MAX TEMP:  75;                                

SAVANNAH       CLOUDY    79  71  76 E5        30.17R                  
6HR MIN TEMP:  73; 6HR MAX TEMP:  79;                                



...SOUTHERN NORTH CAROLINA...
  
CITY           SKY/WX    TMP DP  RH WIND       PRES   REMARKS
CHARLOTTE      PTSUNNY   70  61  73 S3        30.23R                  
6HR MIN TEMP:  61; 6HR MAX TEMP:  70;                                

MONROE         SUNNY     66  60  81 CALM      30.21S                  
6HR MIN TEMP:  60; 6HR MAX TEMP:  69;                                

WADESBORO      SUNNY     65  61  86 CALM      30.23R                  
6HR MIN TEMP:  59; 6HR MAX TEMP:  68;                                

ROCKINGHAM     SUNNY     66  62  85 CALM      30.22S                  
6HR MIN TEMP:  60; 6HR MAX TEMP:  69;                                

RUTHERFORDTON  MOSUNNY   65  64  96 CALM      30.24S                  
6HR MIN TEMP:  61; 6HR MAX TEMP:  65;                                

ASHEVILLE      SUNNY     64  58  80 VRB5      30.26S                  
6HR MIN TEMP:  58; 6HR MAX TEMP:  64;                                


$$
  

Return to Home page


Western Regional Climate Center, wrcc@dri.edu